Weather History for OAHR - August, 2013

Change the Weather History Date:

Saturday, August 17, 2013

  Actual Average Record
Temperature  
Mean Temperature 80 °F -  
Max Temperature 91 °F 92 °F - ()
Min Temperature 69 °F 61 °F - ()
Cooling Degree Days 15    
Growing Degree Days 30 (Base 50)    
Moisture  
Dew Point 33 °F    
Average Humidity 18    
Maximum Humidity 27    
Minimum Humidity 12    
Precipitation  
Precipitation 0.00 in 0.00 in - ()
Sea Level Pressure  
Sea Level Pressure 29.80 in    
Wind  
Wind Speed 9 mph ()    
Max Wind Speed 21 mph    
Max Gust Speed 32 mph    
T = Trace of Precipitation, MM = Missing Value Source: Averaged Metar Reports

Daily Weather History Graph

Daily Weather History Graph

Search for Another Location

Airport or City:

Trip Planner

Search our weather history database for the weather conditions in past years. The results will help you decide how hot, cold, wet, or windy it might be!

Date:

Astronomy

Aug. 17, 2013 Rise Set
Actual Time 5:43 AM AFT 7:06 PM AFT
Civil Twilight 5:17 AM AFT 7:32 PM AFT
Nautical Twilight 4:45 AM AFT 8:03 PM AFT
Astronomical Twilight 4:12 AM AFT 8:36 PM AFT
Moon 3:53 PM AFT (8/17) 1:25 AM AFT (8/17)
Length of Visible Light 14h 15m
Length of Day
13h 22m
Waxing Gibbous, 81% of the Moon is Illuminated
Aug 17
Waxing Gibbous
Aug 21
Full
Aug 28
Last Quarter
Sep 5
New
Sep 12
First Quarter

Hourly Weather History & Observations

Time (AFT) Temp. Dew Point Humidity Pressure Visibility Wind Dir Wind Speed Gust Speed Precip Events Conditions
12:25 AM 75.2 °F 35.6 °F 24% 29.86 in - North 5.8 mph - N/A   Clear
1:24 AM 73.4 °F 35.6 °F 25% 29.83 in - North 5.8 mph - N/A   Clear
2:25 AM 73.4 °F 35.6 °F 25% 29.83 in - North 5.8 mph - N/A   Clear
3:24 AM 71.6 °F 35.6 °F 27% 29.83 in - North 4.6 mph - N/A   Clear
4:24 AM 69.8 °F 33.8 °F 27% 29.80 in - NNE 4.6 mph - N/A   Clear
5:24 AM 71.6 °F 32.0 °F 23% 29.80 in - NNE 6.9 mph - N/A   Clear
6:24 AM 71.6 °F 33.8 °F 25% 29.83 in - NNE 8.1 mph - N/A   Clear
7:25 AM 77.0 °F 33.8 °F 21% 29.83 in - NNE 11.5 mph - N/A   Clear
8:24 AM 80.6 °F 35.6 °F 20% 29.83 in - North 11.5 mph - N/A   Clear
9:24 AM 84.2 °F 35.6 °F 18% 29.83 in - NNE 12.7 mph 24.2 mph N/A   Clear
10:25 AM 86.0 °F 32.0 °F 14% 29.80 in - North 15.0 mph 29.9 mph N/A   Clear
11:25 AM 87.8 °F 32.0 °F 14% 29.80 in - North 20.7 mph 32.2 mph N/A   Clear
12:24 PM 89.6 °F 32.0 °F 13% 29.77 in - North 17.3 mph 28.8 mph N/A   Clear
1:25 PM 91.4 °F 32.0 °F 12% 29.77 in - North 18.4 mph 29.9 mph N/A   Clear
2:25 PM 91.4 °F 32.0 °F 12% 29.74 in - North 18.4 mph - N/A   Clear
3:24 PM 91.4 °F 32.0 °F 12% 29.74 in - North 18.4 mph - N/A   Clear
4:25 PM 91.4 °F 33.8 °F 13% 29.74 in - North 19.6 mph - N/A   Clear
5:24 PM 87.8 °F 32.0 °F 14% 29.74 in - North 18.4 mph - N/A   Clear
6:25 PM 86.0 °F 32.0 °F 14% 29.77 in - North 16.1 mph - N/A   Clear
7:24 PM 84.2 °F 33.8 °F 16% 29.77 in - North 16.1 mph - N/A   Clear
8:25 PM 82.4 °F 33.8 °F 17% 29.80 in - NNE 15.0 mph - N/A   Clear
9:25 PM 80.6 °F 33.8 °F 18% 29.83 in - NNE 12.7 mph - N/A   Clear
10:24 PM 78.8 °F 32.0 °F 18% 29.83 in - NNE 10.4 mph - N/A   Clear
11:25 PM 77.0 °F 32.0 °F 19% 29.83 in - NNE 9.2 mph - N/A   Clear